owner,sensor,date,latitude,longitude,vertical_datum,mass_concentration_of_oxygen_in_sea_water,qcFlag 
NERRS,ioos:station:NOAA.NERRS:rkblhwq:1,2019-01-01T00:45:00Z,26.0257,-81.7332,1.48,6.3,1111122 
NERRS,ioos:station:NOAA.NERRS:rkblhwq:1,2019-01-01T01:45:00Z,26.0257,-81.7332,1.55,5.9,1111122 
NERRS,ioos:station:NOAA.NERRS:rkblhwq:1,2019-01-01T02:45:00Z,26.0257,-81.7332,1.59,5.4,1111122 
NERRS,ioos:station:NOAA.NERRS:rkblhwq:1,2019-01-01T03:45:00Z,26.0257,-81.7332,1.55,5.8,1111122 
NERRS,ioos:station:NOAA.NERRS:rkblhwq:1,2019-01-01T04:45:00Z,26.0257,-81.7332,1.45,6.1,1111122 
NERRS,ioos:station:NOAA.NERRS:rkblhwq:1,2019-01-01T05:45:00Z,26.0257,-81.7332,1.33,5.5,1111122 
NERRS,ioos:station:NOAA.NERRS:rkblhwq:1,2019-01-01T06:45:00Z,26.0257,-81.7332,1.19,5.4,1111122 
NERRS,ioos:station:NOAA.NERRS:rkblhwq:1,2019-01-01T07:45:00Z,26.0257,-81.7332,1.05,5.4,1111122 
NERRS,ioos:station:NOAA.NERRS:rkblhwq:1,2019-01-01T08:45:00Z,26.0257,-81.7332,0.92,5.0,1111122 
NERRS,ioos:station:NOAA.NERRS:rkblhwq:1,2019-01-01T09:45:00Z,26.0257,-81.7332,0.82,4.7,1111122 
NERRS,ioos:station:NOAA.NERRS:rkblhwq:1,2019-01-01T10:45:00Z,26.0257,-81.7332,0.83,4.4,1111122 
NERRS,ioos:station:NOAA.NERRS:rkblhwq:1,2019-01-01T11:45:00Z,26.0257,-81.7332,0.93,4.8,1111122 
NERRS,ioos:station:NOAA.NERRS:rkblhwq:1,2019-01-01T13:45:00Z,26.0257,-81.7332,1.15,5.2,1111122 
NERRS,ioos:station:NOAA.NERRS:rkblhwq:1,2019-01-01T14:45:00Z,26.0257,-81.7332,1.26,5.2,1111122 
NERRS,ioos:station:NOAA.NERRS:rkblhwq:1,2019-01-01T15:45:00Z,26.0257,-81.7332,1.36,5.4,1111122 
NERRS,ioos:station:NOAA.NERRS:rkblhwq:1,2019-01-01T16:45:00Z,26.0257,-81.7332,1.4,3.4,1111122 
NERRS,ioos:station:NOAA.NERRS:rkblhwq:1,2019-01-01T18:45:00Z,26.0257,-81.7332,1.26,6.0,1111122 
NERRS,ioos:station:NOAA.NERRS:rkblhwq:1,2019-01-01T19:45:00Z,26.0257,-81.7332,1.18,6.3,1111122 
NERRS,ioos:station:NOAA.NERRS:rkblhwq:1,2019-01-01T20:45:00Z,26.0257,-81.7332,1.11,6.1,1111122 
NERRS,ioos:station:NOAA.NERRS:rkblhwq:1,2019-01-01T22:45:00Z,26.0257,-81.7332,1.18,6.2,1111122 
NERRS,ioos:station:NOAA.NERRS:rkblhwq:1,2019-01-01T23:45:00Z,26.0257,-81.7332,1.27,6.4,1111122 
NERRS,ioos:station:NOAA.NERRS:rkblhwq:1,2019-01-02T00:45:00Z,26.0257,-81.7332,1.36,6.2,1111122 
NERRS,ioos:station:NOAA.NERRS:rkblhwq:1,2019-01-02T01:45:00Z,26.0257,-81.7332,1.44,5.9,1111122 
NERRS,ioos:station:NOAA.NERRS:rkblhwq:1,2019-01-02T02:45:00Z,26.0257,-81.7332,1.51,5.6,1111122 
NERRS,ioos:station:NOAA.NERRS:rkblhwq:1,2019-01-02T03:45:00Z,26.0257,-81.7332,1.53,4.5,1111122 
NERRS,ioos:station:NOAA.NERRS:rkblhwq:1,2019-01-02T04:45:00Z,26.0257,-81.7332,1.46,5.8,1111122 
NERRS,ioos:station:NOAA.NERRS:rkblhwq:1,2019-01-02T05:45:00Z,26.0257,-81.7332,1.33,5.7,1111122 
NERRS,ioos:station:NOAA.NERRS:rkblhwq:1,2019-01-02T06:45:00Z,26.0257,-81.7332,1.2,5.2,1111122 
NERRS,ioos:station:NOAA.NERRS:rkblhwq:1,2019-01-02T07:45:00Z,26.0257,-81.7332,1.06,4.9,1111122 
NERRS,ioos:station:NOAA.NERRS:rkblhwq:1,2019-01-02T08:45:00Z,26.0257,-81.7332,0.92,4.7,1111122 
NERRS,ioos:station:NOAA.NERRS:rkblhwq:1,2019-01-02T09:45:00Z,26.0257,-81.7332,0.8,4.6,1111122 
NERRS,ioos:station:NOAA.NERRS:rkblhwq:1,2019-01-02T10:45:00Z,26.0257,-81.7332,0.72,4.3,1111122 
NERRS,ioos:station:NOAA.NERRS:rkblhwq:1,2019-01-02T11:45:00Z,26.0257,-81.7332,0.73,3.8,1111122 
NERRS,ioos:station:NOAA.NERRS:rkblhwq:1,2019-01-02T12:45:00Z,26.0257,-81.7332,0.84,4.0,1111122 
NERRS,ioos:station:NOAA.NERRS:rkblhwq:1,2019-01-02T13:45:00Z,26.0257,-81.7332,0.95,4.6,1111122 
NERRS,ioos:station:NOAA.NERRS:rkblhwq:1,2019-01-02T14:45:00Z,26.0257,-81.7332,1.08,5.0,1111122 
NERRS,ioos:station:NOAA.NERRS:rkblhwq:1,2019-01-02T15:45:00Z,26.0257,-81.7332,1.21,5.3,1111122 
NERRS,ioos:station:NOAA.NERRS:rkblhwq:1,2019-01-02T16:45:00Z,26.0257,-81.7332,1.33,5.7,1111122 
NERRS,ioos:station:NOAA.NERRS:rkblhwq:1,2019-01-02T17:45:00Z,26.0257,-81.7332,1.38,2.5,1111122 
NERRS,ioos:station:NOAA.NERRS:rkblhwq:1,2019-01-02T18:45:00Z,26.0257,-81.7332,1.31,6.3,1111122 
NERRS,ioos:station:NOAA.NERRS:rkblhwq:1,2019-01-02T19:45:00Z,26.0257,-81.7332,1.22,6.2,1111122 
NERRS,ioos:station:NOAA.NERRS:rkblhwq:1,2019-01-02T21:45:00Z,26.0257,-81.7332,1.12,5.8,1111122 
NERRS,ioos:station:NOAA.NERRS:rkblhwq:1,2019-01-02T23:45:00Z,26.0257,-81.7332,1.19,5.9,1111122 
NERRS,ioos:station:NOAA.NERRS:rkblhwq:1,2019-01-03T00:45:00Z,26.0257,-81.7332,1.3,6.2,1111122 
NERRS,ioos:station:NOAA.NERRS:rkblhwq:1,2019-01-03T01:45:00Z,26.0257,-81.7332,1.39,6.0,1111122 
NERRS,ioos:station:NOAA.NERRS:rkblhwq:1,2019-01-03T02:45:00Z,26.0257,-81.7332,1.48,5.5,1111122 
NERRS,ioos:station:NOAA.NERRS:rkblhwq:1,2019-01-03T03:45:00Z,26.0257,-81.7332,1.56,5.1,1111122 
NERRS,ioos:station:NOAA.NERRS:rkblhwq:1,2019-01-03T04:45:00Z,26.0257,-81.7332,1.57,4.5,1111122 
NERRS,ioos:station:NOAA.NERRS:rkblhwq:1,2019-01-03T05:45:00Z,26.0257,-81.7332,1.46,5.6,1111122 
NERRS,ioos:station:NOAA.NERRS:rkblhwq:1,2019-01-03T06:45:00Z,26.0257,-81.7332,1.33,5.1,1111122 
NERRS,ioos:station:NOAA.NERRS:rkblhwq:1,2019-01-03T07:45:00Z,26.0257,-81.7332,1.19,4.8,1111122 
NERRS,ioos:station:NOAA.NERRS:rkblhwq:1,2019-01-03T08:45:00Z,26.0257,-81.7332,1.03,4.7,1111122 
NERRS,ioos:station:NOAA.NERRS:rkblhwq:1,2019-01-03T09:45:00Z,26.0257,-81.7332,0.89,4.6,1111122 
NERRS,ioos:station:NOAA.NERRS:rkblhwq:1,2019-01-03T10:45:00Z,26.0257,-81.7332,0.78,4.4,1111122 
NERRS,ioos:station:NOAA.NERRS:rkblhwq:1,2019-01-03T11:45:00Z,26.0257,-81.7332,0.69,3.9,1111122 
NERRS,ioos:station:NOAA.NERRS:rkblhwq:1,2019-01-03T12:45:00Z,26.0257,-81.7332,0.73,3.6,1111122 
NERRS,ioos:station:NOAA.NERRS:rkblhwq:1,2019-01-03T13:45:00Z,26.0257,-81.7332,0.85,4.7,1111122 
NERRS,ioos:station:NOAA.NERRS:rkblhwq:1,2019-01-03T14:45:00Z,26.0257,-81.7332,0.97,5.0,1111122 
NERRS,ioos:station:NOAA.NERRS:rkblhwq:1,2019-01-03T15:45:00Z,26.0257,-81.7332,1.1,5.5,1111122 
NERRS,ioos:station:NOAA.NERRS:rkblhwq:1,2019-01-03T16:45:00Z,26.0257,-81.7332,1.23,5.8,1111122 
NERRS,ioos:station:NOAA.NERRS:rkblhwq:1,2019-01-03T17:45:00Z,26.0257,-81.7332,1.33,5.8,1111122 
NERRS,ioos:station:NOAA.NERRS:rkblhwq:1,2019-01-03T19:45:00Z,26.0257,-81.7332,1.27,6.3,1111122 
NERRS,ioos:station:NOAA.NERRS:rkblhwq:1,2019-01-03T20:45:00Z,26.0257,-81.7332,1.19,6.3,1111122 
NERRS,ioos:station:NOAA.NERRS:rkblhwq:1,2019-01-03T21:45:00Z,26.0257,-81.7332,1.12,6.1,1111122 
NERRS,ioos:station:NOAA.NERRS:rkblhwq:1,2019-01-03T23:45:00Z,26.0257,-81.7332,1.06,5.5,1111122 
NERRS,ioos:station:NOAA.NERRS:rkblhwq:1,2019-01-04T00:45:00Z,26.0257,-81.7332,1.17,5.9,1111122 
NERRS,ioos:station:NOAA.NERRS:rkblhwq:1,2019-01-04T01:45:00Z,26.0257,-81.7332,1.3,5.8,1111122 
NERRS,ioos:station:NOAA.NERRS:rkblhwq:1,2019-01-04T02:45:00Z,26.0257,-81.7332,1.42,5.6,1111122 
NERRS,ioos:station:NOAA.NERRS:rkblhwq:1,2019-01-04T03:45:00Z,26.0257,-81.7332,1.53,5.6,1111122 
NERRS,ioos:station:NOAA.NERRS:rkblhwq:1,2019-01-04T04:45:00Z,26.0257,-81.7332,1.59,5.4,1111122 
NERRS,ioos:station:NOAA.NERRS:rkblhwq:1,2019-01-04T05:45:00Z,26.0257,-81.7332,1.56,5.2,1111122 
NERRS,ioos:station:NOAA.NERRS:rkblhwq:1,2019-01-04T06:45:00Z,26.0257,-81.7332,1.44,5.4,1111122 
NERRS,ioos:station:NOAA.NERRS:rkblhwq:1,2019-01-04T07:45:00Z,26.0257,-81.7332,1.3,5.1,1111122 
NERRS,ioos:station:NOAA.NERRS:rkblhwq:1,2019-01-04T08:45:00Z,26.0257,-81.7332,1.15,4.7,1111122 
NERRS,ioos:station:NOAA.NERRS:rkblhwq:1,2019-01-04T09:45:00Z,26.0257,-81.7332,1.0,4.6,1111122 
NERRS,ioos:station:NOAA.NERRS:rkblhwq:1,2019-01-04T10:45:00Z,26.0257,-81.7332,0.86,4.2,1111122 
NERRS,ioos:station:NOAA.NERRS:rkblhwq:1,2019-01-04T11:45:00Z,26.0257,-81.7332,0.76,3.9,1111122 
NERRS,ioos:station:NOAA.NERRS:rkblhwq:1,2019-01-04T12:45:00Z,26.0257,-81.7332,0.71,3.3,1111122 
NERRS,ioos:station:NOAA.NERRS:rkblhwq:1,2019-01-04T13:45:00Z,26.0257,-81.7332,0.81,4.2,1111122 
NERRS,ioos:station:NOAA.NERRS:rkblhwq:1,2019-01-04T14:45:00Z,26.0257,-81.7332,0.94,4.6,1111122 
NERRS,ioos:station:NOAA.NERRS:rkblhwq:1,2019-01-04T16:45:00Z,26.0257,-81.7332,1.28,5.6,1111122 
NERRS,ioos:station:NOAA.NERRS:rkblhwq:1,2019-01-04T17:45:00Z,26.0257,-81.7332,1.42,5.8,1111122 
NERRS,ioos:station:NOAA.NERRS:rkblhwq:1,2019-01-04T18:45:00Z,26.0257,-81.7332,1.48,5.3,1111122 
NERRS,ioos:station:NOAA.NERRS:rkblhwq:1,2019-01-04T20:45:00Z,26.0257,-81.7332,1.39,6.3,1111122 
NERRS,ioos:station:NOAA.NERRS:rkblhwq:1,2019-01-04T21:45:00Z,26.0257,-81.7332,1.3,6.3,1111122 
NERRS,ioos:station:NOAA.NERRS:rkblhwq:1,2019-01-04T22:45:00Z,26.0257,-81.7332,1.22,6.0,1111122 
NERRS,ioos:station:NOAA.NERRS:rkblhwq:1,2019-01-05T00:45:00Z,26.0257,-81.7332,1.2,5.8,1111122 
NERRS,ioos:station:NOAA.NERRS:rkblhwq:1,2019-01-05T01:45:00Z,26.0257,-81.7332,1.3,5.9,1111122 
NERRS,ioos:station:NOAA.NERRS:rkblhwq:1,2019-01-05T02:45:00Z,26.0257,-81.7332,1.4,5.4,1111122 
NERRS,ioos:station:NOAA.NERRS:rkblhwq:1,2019-01-05T03:45:00Z,26.0257,-81.7332,1.48,5.7,1111122 
NERRS,ioos:station:NOAA.NERRS:rkblhwq:1,2019-01-05T04:45:00Z,26.0257,-81.7332,1.57,5.1,1111122 
NERRS,ioos:station:NOAA.NERRS:rkblhwq:1,2019-01-05T05:45:00Z,26.0257,-81.7332,1.6,5.3,1111122 
NERRS,ioos:station:NOAA.NERRS:rkblhwq:1,2019-01-05T06:45:00Z,26.0257,-81.7332,1.55,5.3,1111122 
NERRS,ioos:station:NOAA.NERRS:rkblhwq:1,2019-01-05T07:45:00Z,26.0257,-81.7332,1.41,5.3,1111122 
NERRS,ioos:station:NOAA.NERRS:rkblhwq:1,2019-01-05T08:45:00Z,26.0257,-81.7332,1.25,4.9,1111122 
NERRS,ioos:station:NOAA.NERRS:rkblhwq:1,2019-01-05T09:45:00Z,26.0257,-81.7332,1.1,4.6,1111122 
NERRS,ioos:station:NOAA.NERRS:rkblhwq:1,2019-01-05T10:45:00Z,26.0257,-81.7332,0.96,4.5,1111122 
NERRS,ioos:station:NOAA.NERRS:rkblhwq:1,2019-01-05T11:45:00Z,26.0257,-81.7332,0.83,4.2,1111122 
NERRS,ioos:station:NOAA.NERRS:rkblhwq:1,2019-01-05T12:45:00Z,26.0257,-81.7332,0.73,3.8,1111122 
NERRS,ioos:station:NOAA.NERRS:rkblhwq:1,2019-01-05T13:45:00Z,26.0257,-81.7332,0.71,3.6,1111122 
NERRS,ioos:station:NOAA.NERRS:rkblhwq:1,2019-01-05T14:45:00Z,26.0257,-81.7332,0.83,4.8,1111122 
NERRS,ioos:station:NOAA.NERRS:rkblhwq:1,2019-01-05T15:45:00Z,26.0257,-81.7332,0.98,5.2,1111122 
NERRS,ioos:station:NOAA.NERRS:rkblhwq:1,2019-01-05T17:45:00Z,26.0257,-81.7332,1.3,6.1,1111122 
NERRS,ioos:station:NOAA.NERRS:rkblhwq:1,2019-01-05T19:45:00Z,26.0257,-81.7332,1.42,5.5,1111122 
NERRS,ioos:station:NOAA.NERRS:rkblhwq:1,2019-01-05T20:45:00Z,26.0257,-81.7332,1.33,6.5,1111122 
NERRS,ioos:station:NOAA.NERRS:rkblhwq:1,2019-01-05T21:45:00Z,26.0257,-81.7332,1.25,6.4,1111122 
NERRS,ioos:station:NOAA.NERRS:rkblhwq:1,2019-01-05T22:45:00Z,26.0257,-81.7332,1.18,6.4,1111122 
NERRS,ioos:station:NOAA.NERRS:rkblhwq:1,2019-01-05T23:45:00Z,26.0257,-81.7332,1.12,5.7,1111122 
NERRS,ioos:station:NOAA.NERRS:rkblhwq:1,2019-01-06T00:45:00Z,26.0257,-81.7332,1.11,3.1,1111122 
NERRS,ioos:station:NOAA.NERRS:rkblhwq:1,2019-01-06T01:45:00Z,26.0257,-81.7332,1.18,5.9,1111122 
NERRS,ioos:station:NOAA.NERRS:rkblhwq:1,2019-01-06T02:45:00Z,26.0257,-81.7332,1.3,6.2,1111122 
NERRS,ioos:station:NOAA.NERRS:rkblhwq:1,2019-01-06T04:45:00Z,26.0257,-81.7332,1.54,6.0,1111122 
NERRS,ioos:station:NOAA.NERRS:rkblhwq:1,2019-01-06T05:45:00Z,26.0257,-81.7332,1.58,4.6,1111122 
NERRS,ioos:station:NOAA.NERRS:rkblhwq:1,2019-01-06T06:45:00Z,26.0257,-81.7332,1.51,5.7,1111122 
NERRS,ioos:station:NOAA.NERRS:rkblhwq:1,2019-01-06T07:45:00Z,26.0257,-81.7332,1.39,5.7,1111122 
NERRS,ioos:station:NOAA.NERRS:rkblhwq:1,2019-01-06T08:45:00Z,26.0257,-81.7332,1.25,5.2,1111122 
NERRS,ioos:station:NOAA.NERRS:rkblhwq:1,2019-01-06T09:45:00Z,26.0257,-81.7332,1.1,4.9,1111122 
NERRS,ioos:station:NOAA.NERRS:rkblhwq:1,2019-01-06T10:45:00Z,26.0257,-81.7332,0.97,4.8,1111122 
NERRS,ioos:station:NOAA.NERRS:rkblhwq:1,2019-01-06T11:45:00Z,26.0257,-81.7332,0.84,5.0,1111122 
NERRS,ioos:station:NOAA.NERRS:rkblhwq:1,2019-01-06T12:45:00Z,26.0257,-81.7332,0.73,4.6,1111122 
NERRS,ioos:station:NOAA.NERRS:rkblhwq:1,2019-01-06T13:45:00Z,26.0257,-81.7332,0.65,4.9,1111122 
NERRS,ioos:station:NOAA.NERRS:rkblhwq:1,2019-01-06T14:45:00Z,26.0257,-81.7332,0.68,5.1,1111122 
NERRS,ioos:station:NOAA.NERRS:rkblhwq:1,2019-01-06T15:45:00Z,26.0257,-81.7332,0.79,5.9,1111122 
NERRS,ioos:station:NOAA.NERRS:rkblhwq:1,2019-01-06T16:45:00Z,26.0257,-81.7332,0.9,6.0,1111122 
NERRS,ioos:station:NOAA.NERRS:rkblhwq:1,2019-01-06T17:45:00Z,26.0257,-81.7332,1.05,6.4,1111122 
NERRS,ioos:station:NOAA.NERRS:rkblhwq:1,2019-01-06T18:45:00Z,26.0257,-81.7332,1.19,6.8,1111122 
NERRS,ioos:station:NOAA.NERRS:rkblhwq:1,2019-01-06T19:45:00Z,26.0257,-81.7332,1.32,7.0,1111122 
NERRS,ioos:station:NOAA.NERRS:rkblhwq:1,2019-01-06T20:45:00Z,26.0257,-81.7332,1.34,6.7,1111122 
NERRS,ioos:station:NOAA.NERRS:rkblhwq:1,2019-01-06T21:45:00Z,26.0257,-81.7332,1.25,7.2,1111122 
NERRS,ioos:station:NOAA.NERRS:rkblhwq:1,2019-01-06T23:45:00Z,26.0257,-81.7332,1.09,6.7,1111122 
NERRS,ioos:station:NOAA.NERRS:rkblhwq:1,2019-01-07T00:45:00Z,26.0257,-81.7332,1.08,5.9,1111122 
NERRS,ioos:station:NOAA.NERRS:rkblhwq:1,2019-01-07T01:45:00Z,26.0257,-81.7332,1.15,6.7,1111122 
NERRS,ioos:station:NOAA.NERRS:rkblhwq:1,2019-01-07T02:45:00Z,26.0257,-81.7332,1.24,6.6,1111122 
NERRS,ioos:station:NOAA.NERRS:rkblhwq:1,2019-01-07T03:45:00Z,26.0257,-81.7332,1.35,6.5,1111122 
NERRS,ioos:station:NOAA.NERRS:rkblhwq:1,2019-01-07T04:45:00Z,26.0257,-81.7332,1.47,6.3,1111122 
NERRS,ioos:station:NOAA.NERRS:rkblhwq:1,2019-01-07T05:45:00Z,26.0257,-81.7332,1.56,6.1,1111122 
NERRS,ioos:station:NOAA.NERRS:rkblhwq:1,2019-01-07T06:45:00Z,26.0257,-81.7332,1.58,4.8,1111122 
NERRS,ioos:station:NOAA.NERRS:rkblhwq:1,2019-01-07T08:45:00Z,26.0257,-81.7332,1.37,6.0,1111122 
NERRS,ioos:station:NOAA.NERRS:rkblhwq:1,2019-01-07T09:45:00Z,26.0257,-81.7332,1.24,5.7,1111122 
NERRS,ioos:station:NOAA.NERRS:rkblhwq:1,2019-01-07T10:45:00Z,26.0257,-81.7332,1.1,5.8,1111122 
NERRS,ioos:station:NOAA.NERRS:rkblhwq:1,2019-01-07T11:45:00Z,26.0257,-81.7332,0.98,5.4,1111122 
NERRS,ioos:station:NOAA.NERRS:rkblhwq:1,2019-01-07T12:45:00Z,26.0257,-81.7332,0.86,5.4,1111122 
NERRS,ioos:station:NOAA.NERRS:rkblhwq:1,2019-01-07T13:45:00Z,26.0257,-81.7332,0.77,5.1,1111122 
NERRS,ioos:station:NOAA.NERRS:rkblhwq:1,2019-01-07T14:45:00Z,26.0257,-81.7332,0.78,5.7,1111122 
NERRS,ioos:station:NOAA.NERRS:rkblhwq:1,2019-01-07T15:45:00Z,26.0257,-81.7332,0.88,6.0,1111122 
NERRS,ioos:station:NOAA.NERRS:rkblhwq:1,2019-01-07T17:45:00Z,26.0257,-81.7332,1.15,6.7,1111122 
NERRS,ioos:station:NOAA.NERRS:rkblhwq:1,2019-01-07T18:45:00Z,26.0257,-81.7332,1.3,6.9,1111122 
NERRS,ioos:station:NOAA.NERRS:rkblhwq:1,2019-01-07T19:45:00Z,26.0257,-81.7332,1.41,7.1,1111122 
NERRS,ioos:station:NOAA.NERRS:rkblhwq:1,2019-01-07T21:45:00Z,26.0257,-81.7332,1.36,7.2,1111122 
NERRS,ioos:station:NOAA.NERRS:rkblhwq:1,2019-01-07T23:45:00Z,26.0257,-81.7332,1.17,6.9,1111122 
NERRS,ioos:station:NOAA.NERRS:rkblhwq:1,2019-01-08T00:45:00Z,26.0257,-81.7332,1.1,6.7,1111122 
NERRS,ioos:station:NOAA.NERRS:rkblhwq:1,2019-01-08T01:45:00Z,26.0257,-81.7332,1.07,5.3,1111122 
NERRS,ioos:station:NOAA.NERRS:rkblhwq:1,2019-01-08T02:45:00Z,26.0257,-81.7332,1.14,6.6,1111122 
NERRS,ioos:station:NOAA.NERRS:rkblhwq:1,2019-01-08T03:45:00Z,26.0257,-81.7332,1.26,6.5,1111122 
NERRS,ioos:station:NOAA.NERRS:rkblhwq:1,2019-01-08T04:45:00Z,26.0257,-81.7332,1.38,6.3,1111122 
NERRS,ioos:station:NOAA.NERRS:rkblhwq:1,2019-01-08T05:45:00Z,26.0257,-81.7332,1.49,6.2,1111122 
NERRS,ioos:station:NOAA.NERRS:rkblhwq:1,2019-01-08T06:45:00Z,26.0257,-81.7332,1.55,6.1,1111122 
NERRS,ioos:station:NOAA.NERRS:rkblhwq:1,2019-01-08T07:45:00Z,26.0257,-81.7332,1.53,6.0,1111122 
NERRS,ioos:station:NOAA.NERRS:rkblhwq:1,2019-01-08T08:45:00Z,26.0257,-81.7332,1.44,5.9,1111122 
NERRS,ioos:station:NOAA.NERRS:rkblhwq:1,2019-01-08T09:45:00Z,26.0257,-81.7332,1.32,5.7,1111122 
NERRS,ioos:station:NOAA.NERRS:rkblhwq:1,2019-01-08T10:45:00Z,26.0257,-81.7332,1.18,5.8,1111122 
NERRS,ioos:station:NOAA.NERRS:rkblhwq:1,2019-01-08T11:45:00Z,26.0257,-81.7332,1.05,5.6,1111122 
NERRS,ioos:station:NOAA.NERRS:rkblhwq:1,2019-01-08T12:45:00Z,26.0257,-81.7332,0.93,5.3,1111122 
NERRS,ioos:station:NOAA.NERRS:rkblhwq:1,2019-01-08T13:45:00Z,26.0257,-81.7332,0.83,5.3,1111122 
NERRS,ioos:station:NOAA.NERRS:rkblhwq:1,2019-01-08T14:45:00Z,26.0257,-81.7332,0.78,4.5,1111122 
NERRS,ioos:station:NOAA.NERRS:rkblhwq:1,2019-01-08T15:45:00Z,26.0257,-81.7332,0.87,5.8,1111122 
NERRS,ioos:station:NOAA.NERRS:rkblhwq:1,2019-01-08T16:45:00Z,26.0257,-81.7332,1.0,6.1,1111122 
NERRS,ioos:station:NOAA.NERRS:rkblhwq:1,2019-01-08T17:45:00Z,26.0257,-81.7332,1.14,6.5,1111122 
NERRS,ioos:station:NOAA.NERRS:rkblhwq:1,2019-01-08T18:45:00Z,26.0257,-81.7332,1.29,6.7,1111122 
NERRS,ioos:station:NOAA.NERRS:rkblhwq:1,2019-01-08T19:45:00Z,26.0257,-81.7332,1.43,6.7,1111122 
NERRS,ioos:station:NOAA.NERRS:rkblhwq:1,2019-01-08T20:45:00Z,26.0257,-81.7332,1.51,6.7,1111122 
NERRS,ioos:station:NOAA.NERRS:rkblhwq:1,2019-01-08T21:45:00Z,26.0257,-81.7332,1.47,7.0,1111122 
NERRS,ioos:station:NOAA.NERRS:rkblhwq:1,2019-01-08T22:45:00Z,26.0257,-81.7332,1.38,6.8,1111122 
NERRS,ioos:station:NOAA.NERRS:rkblhwq:1,2019-01-09T00:45:00Z,26.0257,-81.7332,1.19,6.5,1111122 
NERRS,ioos:station:NOAA.NERRS:rkblhwq:1,2019-01-09T01:45:00Z,26.0257,-81.7332,1.13,6.4,1111122 
NERRS,ioos:station:NOAA.NERRS:rkblhwq:1,2019-01-09T02:45:00Z,26.0257,-81.7332,1.15,6.1,1111122 
NERRS,ioos:station:NOAA.NERRS:rkblhwq:1,2019-01-09T03:45:00Z,26.0257,-81.7332,1.25,6.4,1111122 
NERRS,ioos:station:NOAA.NERRS:rkblhwq:1,2019-01-09T04:45:00Z,26.0257,-81.7332,1.37,6.1,1111122 
NERRS,ioos:station:NOAA.NERRS:rkblhwq:1,2019-01-09T05:45:00Z,26.0257,-81.7332,1.47,6.0,1111122 
NERRS,ioos:station:NOAA.NERRS:rkblhwq:1,2019-01-09T06:45:00Z,26.0257,-81.7332,1.55,5.8,1111122 
NERRS,ioos:station:NOAA.NERRS:rkblhwq:1,2019-01-09T07:45:00Z,26.0257,-81.7332,1.57,4.5,1111122 
NERRS,ioos:station:NOAA.NERRS:rkblhwq:1,2019-01-09T08:45:00Z,26.0257,-81.7332,1.5,5.8,1111122 
NERRS,ioos:station:NOAA.NERRS:rkblhwq:1,2019-01-09T09:45:00Z,26.0257,-81.7332,1.38,5.5,1111122 
NERRS,ioos:station:NOAA.NERRS:rkblhwq:1,2019-01-09T10:45:00Z,26.0257,-81.7332,1.25,5.3,1111122 
NERRS,ioos:station:NOAA.NERRS:rkblhwq:1,2019-01-09T11:45:00Z,26.0257,-81.7332,1.11,5.3,1111122 
NERRS,ioos:station:NOAA.NERRS:rkblhwq:1,2019-01-09T12:45:00Z,26.0257,-81.7332,0.97,5.2,1111122 
NERRS,ioos:station:NOAA.NERRS:rkblhwq:1,2019-01-09T13:45:00Z,26.0257,-81.7332,0.85,4.8,1111122 
NERRS,ioos:station:NOAA.NERRS:rkblhwq:1,2019-01-09T17:45:00Z,26.0257,-81.7332,0.92,5.8,1111122 
NERRS,ioos:station:NOAA.NERRS:rkblhwq:1,2019-01-09T18:45:00Z,26.0257,-81.7332,1.05,6.2,1111122 
NERRS,ioos:station:NOAA.NERRS:rkblhwq:1,2019-01-09T19:45:00Z,26.0257,-81.7332,1.18,6.6,1111122 
NERRS,ioos:station:NOAA.NERRS:rkblhwq:1,2019-01-09T21:45:00Z,26.0257,-81.7332,1.34,6.1,1111122 
NERRS,ioos:station:NOAA.NERRS:rkblhwq:1,2019-01-09T23:45:00Z,26.0257,-81.7332,1.18,6.2,1111122 
NERRS,ioos:station:NOAA.NERRS:rkblhwq:1,2019-01-10T00:45:00Z,26.0257,-81.7332,1.13,6.0,1111122 
NERRS,ioos:station:NOAA.NERRS:rkblhwq:1,2019-01-10T01:45:00Z,26.0257,-81.7332,1.06,5.8,1111122 
NERRS,ioos:station:NOAA.NERRS:rkblhwq:1,2019-01-10T02:45:00Z,26.0257,-81.7332,1.03,3.8,1111122 
NERRS,ioos:station:NOAA.NERRS:rkblhwq:1,2019-01-10T03:45:00Z,26.0257,-81.7332,1.09,5.7,1111122 
NERRS,ioos:station:NOAA.NERRS:rkblhwq:1,2019-01-10T04:45:00Z,26.0257,-81.7332,1.19,5.9,1111122 
NERRS,ioos:station:NOAA.NERRS:rkblhwq:1,2019-01-10T05:45:00Z,26.0257,-81.7332,1.3,6.0,1111122 
NERRS,ioos:station:NOAA.NERRS:rkblhwq:1,2019-01-10T06:45:00Z,26.0257,-81.7332,1.4,5.9,1111122 
NERRS,ioos:station:NOAA.NERRS:rkblhwq:1,2019-01-10T07:45:00Z,26.0257,-81.7332,1.46,5.6,1111122 
NERRS,ioos:station:NOAA.NERRS:rkblhwq:1,2019-01-10T08:45:00Z,26.0257,-81.7332,1.42,5.5,1111122 
NERRS,ioos:station:NOAA.NERRS:rkblhwq:1,2019-01-10T09:45:00Z,26.0257,-81.7332,1.32,5.3,1111122 
NERRS,ioos:station:NOAA.NERRS:rkblhwq:1,2019-01-10T10:45:00Z,26.0257,-81.7332,1.2,5.1,1111122 
NERRS,ioos:station:NOAA.NERRS:rkblhwq:1,2019-01-10T11:45:00Z,26.0257,-81.7332,1.08,4.9,1111122 
NERRS,ioos:station:NOAA.NERRS:rkblhwq:1,2019-01-10T12:45:00Z,26.0257,-81.7332,0.97,4.8,1111122 
NERRS,ioos:station:NOAA.NERRS:rkblhwq:1,2019-01-10T13:45:00Z,26.0257,-81.7332,0.86,5.0,1111122 
NERRS,ioos:station:NOAA.NERRS:rkblhwq:1,2019-01-10T15:45:00Z,26.0257,-81.7332,0.69,5.5,1111122 
NERRS,ioos:station:NOAA.NERRS:rkblhwq:1,2019-01-10T16:45:00Z,26.0257,-81.7332,0.75,6.2,1111122 
NERRS,ioos:station:NOAA.NERRS:rkblhwq:1,2019-01-10T18:45:00Z,26.0257,-81.7332,0.98,6.8,1111122 
NERRS,ioos:station:NOAA.NERRS:rkblhwq:1,2019-01-10T19:45:00Z,26.0257,-81.7332,1.13,7.0,1111122 
NERRS,ioos:station:NOAA.NERRS:rkblhwq:1,2019-01-10T20:45:00Z,26.0257,-81.7332,1.26,7.2,1111122 
NERRS,ioos:station:NOAA.NERRS:rkblhwq:1,2019-01-10T21:45:00Z,26.0257,-81.7332,1.37,7.2,1111122 
NERRS,ioos:station:NOAA.NERRS:rkblhwq:1,2019-01-10T23:45:00Z,26.0257,-81.7332,1.29,6.9,1111122 
NERRS,ioos:station:NOAA.NERRS:rkblhwq:1,2019-01-11T00:45:00Z,26.0257,-81.7332,1.2,6.6,1111122 
NERRS,ioos:station:NOAA.NERRS:rkblhwq:1,2019-01-11T01:45:00Z,26.0257,-81.7332,1.13,6.5,1111122 
NERRS,ioos:station:NOAA.NERRS:rkblhwq:1,2019-01-11T02:45:00Z,26.0257,-81.7332,1.08,5.9,1111122 
NERRS,ioos:station:NOAA.NERRS:rkblhwq:1,2019-01-11T03:45:00Z,26.0257,-81.7332,1.08,6.1,1111122 
NERRS,ioos:station:NOAA.NERRS:rkblhwq:1,2019-01-11T04:45:00Z,26.0257,-81.7332,1.16,6.4,1111122 
NERRS,ioos:station:NOAA.NERRS:rkblhwq:1,2019-01-11T05:45:00Z,26.0257,-81.7332,1.25,6.4,1111122 
NERRS,ioos:station:NOAA.NERRS:rkblhwq:1,2019-01-11T06:45:00Z,26.0257,-81.7332,1.35,6.3,1111122 
NERRS,ioos:station:NOAA.NERRS:rkblhwq:1,2019-01-11T07:45:00Z,26.0257,-81.7332,1.41,6.2,1111122 
NERRS,ioos:station:NOAA.NERRS:rkblhwq:1,2019-01-11T08:45:00Z,26.0257,-81.7332,1.43,4.8,1111122 
NERRS,ioos:station:NOAA.NERRS:rkblhwq:1,2019-01-11T09:45:00Z,26.0257,-81.7332,1.41,5.8,1111122 
NERRS,ioos:station:NOAA.NERRS:rkblhwq:1,2019-01-11T10:45:00Z,26.0257,-81.7332,1.34,6.2,1111122 
NERRS,ioos:station:NOAA.NERRS:rkblhwq:1,2019-01-11T11:45:00Z,26.0257,-81.7332,1.24,5.8,1111122 
NERRS,ioos:station:NOAA.NERRS:rkblhwq:1,2019-01-11T12:45:00Z,26.0257,-81.7332,1.13,5.8,1111122 
NERRS,ioos:station:NOAA.NERRS:rkblhwq:1,2019-01-11T13:45:00Z,26.0257,-81.7332,1.03,6.0,1111122 
NERRS,ioos:station:NOAA.NERRS:rkblhwq:1,2019-01-11T14:45:00Z,26.0257,-81.7332,0.94,5.9,1111122 
NERRS,ioos:station:NOAA.NERRS:rkblhwq:1,2019-01-11T15:45:00Z,26.0257,-81.7332,0.88,6.0,1111122 
NERRS,ioos:station:NOAA.NERRS:rkblhwq:1,2019-01-11T16:45:00Z,26.0257,-81.7332,0.91,6.5,1111122 
NERRS,ioos:station:NOAA.NERRS:rkblhwq:1,2019-01-11T17:45:00Z,26.0257,-81.7332,1.0,6.8,1111122 
NERRS,ioos:station:NOAA.NERRS:rkblhwq:1,2019-01-11T19:45:00Z,26.0257,-81.7332,1.24,7.1,1111122 
NERRS,ioos:station:NOAA.NERRS:rkblhwq:1,2019-01-11T21:45:00Z,26.0257,-81.7332,1.46,7.2,1111122 
NERRS,ioos:station:NOAA.NERRS:rkblhwq:1,2019-01-11T22:45:00Z,26.0257,-81.7332,1.5,5.8,1111122 
NERRS,ioos:station:NOAA.NERRS:rkblhwq:1,2019-01-12T00:45:00Z,26.0257,-81.7332,1.32,6.9,1111122 
NERRS,ioos:station:NOAA.NERRS:rkblhwq:1,2019-01-12T01:45:00Z,26.0257,-81.7332,1.23,6.6,1111122 
NERRS,ioos:station:NOAA.NERRS:rkblhwq:1,2019-01-12T02:45:00Z,26.0257,-81.7332,1.15,6.4,1111122 
NERRS,ioos:station:NOAA.NERRS:rkblhwq:1,2019-01-12T03:45:00Z,26.0257,-81.7332,1.1,6.1,1111122 
NERRS,ioos:station:NOAA.NERRS:rkblhwq:1,2019-01-12T04:45:00Z,26.0257,-81.7332,1.1,6.4,1111122 
NERRS,ioos:station:NOAA.NERRS:rkblhwq:1,2019-01-12T05:45:00Z,26.0257,-81.7332,1.17,6.5,1111122 
NERRS,ioos:station:NOAA.NERRS:rkblhwq:1,2019-01-12T06:45:00Z,26.0257,-81.7332,1.25,6.4,1111122 
NERRS,ioos:station:NOAA.NERRS:rkblhwq:1,2019-01-12T08:45:00Z,26.0257,-81.7332,1.4,6.3,1111122 
NERRS,ioos:station:NOAA.NERRS:rkblhwq:1,2019-01-12T11:45:00Z,26.0257,-81.7332,1.31,6.2,1111122 
NERRS,ioos:station:NOAA.NERRS:rkblhwq:1,2019-01-12T12:45:00Z,26.0257,-81.7332,1.22,6.0,1111122 
NERRS,ioos:station:NOAA.NERRS:rkblhwq:1,2019-01-12T13:45:00Z,26.0257,-81.7332,1.12,5.8,1111122 
NERRS,ioos:station:NOAA.NERRS:rkblhwq:1,2019-01-12T14:45:00Z,26.0257,-81.7332,1.03,5.9,1111122 
NERRS,ioos:station:NOAA.NERRS:rkblhwq:1,2019-01-12T15:45:00Z,26.0257,-81.7332,0.95,6.1,1111122 
NERRS,ioos:station:NOAA.NERRS:rkblhwq:1,2019-01-12T16:45:00Z,26.0257,-81.7332,0.94,6.2,1111122 
NERRS,ioos:station:NOAA.NERRS:rkblhwq:1,2019-01-12T17:45:00Z,26.0257,-81.7332,1.01,6.5,1111122 